Oakes, ND

7:21 AM CDT on May 25, 2017 (GMT -0500)
Oakes

Weather History for K2D5 - December, 2013

Change the Weather History Date:

Friday, December 6, 2013

  Actual Average (KP67) Record (KP67)
Temperature  
Mean Temperature -8 °F -  
Max Temperature -2 °F 24 °F 26 °F (1996)
Min Temperature -13 °F 13 °F 12 °F (1996)
Degree Days  
Heating Degree Days 72    
Moisture  
Dew Point -14 °F    
Average Humidity 73    
Maximum Humidity 84    
Minimum Humidity 65    
Precipitation  
Precipitation 0.00 in - - ()
Sea Level Pressure  
Sea Level Pressure 30.51 in    
Wind  
Wind Speed 13 mph (West)    
Max Wind Speed 23 mph    
Max Gust Speed 25 mph    
Visibility 10 miles    
Events      
Averages and records for this station are not official NWS values.
T = Trace of Precipitation, MM = Missing Value Source: NWS Daily Summary

Daily Weather History Graph

Daily Weather History Graph

Search for Another Location

Airport or City:

Trip Planner

Search our weather history database for the weather conditions in past years. The results will help you decide how hot, cold, wet, or windy it might be!

Date:

Astronomy

Dec. 06, 2013 Rise Set
Actual Time 8:00 AM CST 4:46 PM CST
Civil Twilight 7:25 AM CST 5:20 PM CST
Nautical Twilight 6:48 AM CST 5:58 PM CST
Astronomical Twilight 6:11 AM CST 6:35 PM CST
Moon 10:58 AM CST (12/6) 9:29 PM CST (12/6)
Length of Visible Light 9h 55m
Length of Day
8h 46m
Waxing Crescent, 19% of the Moon is Illuminated
Dec 6
Waxing Crescent
Dec 9
First Quarter
Dec 17
Full
Dec 25
Last Quarter
Jan 1
New

Hourly Weather History & Observations

Time (CST) Temp. Windchill Dew Point Humidity Pressure Visibility Wind Dir Wind Speed Gust Speed Precip Events Conditions
12:15 AM -4.0 °F -23.7 °F -9.4 °F 78% 30.33 in 10.0 mi WNW 13.8 mph - N/A   Scattered Clouds
5:35 AM -7.6 °F -25.7 °F -13.0 °F 77% 30.40 in 10.0 mi WNW 10.4 mph - N/A   Clear
5:55 AM -9.4 °F -27.9 °F -14.8 °F 77% 30.41 in 10.0 mi WNW 10.4 mph - N/A   Clear
6:15 AM -9.4 °F -31.4 °F -14.8 °F 77% 30.41 in 10.0 mi WNW 15.0 mph - N/A   Clear
6:35 AM -7.6 °F -30.5 °F -14.8 °F 71% 30.41 in 10.0 mi WNW 17.3 mph - N/A   Clear
6:55 AM -9.4 °F -28.9 °F -14.8 °F 77% 30.42 in 10.0 mi WNW 11.5 mph - N/A   Clear
7:15 AM -9.4 °F -28.9 °F -16.6 °F 71% 30.43 in 10.0 mi West 11.5 mph - N/A   Clear
7:35 AM -9.4 °F -28.9 °F -16.6 °F 71% 30.44 in 10.0 mi West 11.5 mph - N/A   Clear
7:55 AM -9.4 °F -29.8 °F -16.6 °F 71% 30.44 in 10.0 mi WNW 12.7 mph - N/A   Clear
8:15 AM -9.4 °F -31.4 °F -16.6 °F 71% 30.44 in 10.0 mi WNW 15.0 mph - N/A   Clear
8:35 AM -9.4 °F -31.4 °F -16.6 °F 71% 30.44 in 10.0 mi West 15.0 mph - N/A   Clear
8:55 AM -9.4 °F -28.9 °F -14.8 °F 77% 30.46 in 10.0 mi West 11.5 mph - N/A   Clear
9:15 AM -7.6 °F -28.3 °F -14.8 °F 71% 30.46 in 10.0 mi West 13.8 mph - N/A   Clear
9:35 AM -7.6 °F -30.5 °F -14.8 °F 71% 30.47 in 10.0 mi West 17.3 mph 20.7 mph N/A   Clear
9:55 AM -7.6 °F -31.7 °F -13.0 °F 77% 30.47 in 10.0 mi WNW 19.6 mph 23.0 mph N/A   Clear
10:15 AM -5.8 °F -27.5 °F -13.0 °F 71% 30.49 in 10.0 mi WNW 16.1 mph 19.6 mph N/A   Clear
10:35 AM -5.8 °F -27.5 °F -13.0 °F 71% 30.50 in 10.0 mi WNW 16.1 mph - N/A   Clear
10:55 AM -4.0 °F -25.8 °F -13.0 °F 65% 30.50 in 10.0 mi WNW 17.3 mph - N/A   Clear
11:15 AM -4.0 °F -27.6 °F -13.0 °F 65% 30.49 in 10.0 mi WNW 20.7 mph 25.3 mph N/A   Clear
11:35 AM -4.0 °F -27.0 °F -11.2 °F 71% 30.49 in 10.0 mi West 19.6 mph 23.0 mph N/A   Clear
11:55 AM -4.0 °F -27.0 °F -11.2 °F 71% 30.49 in 10.0 mi WNW 19.6 mph - N/A   Clear
12:15 PM -4.0 °F -28.6 °F -11.2 °F 71% 30.48 in 10.0 mi West 23.0 mph - N/A   Clear
12:35 PM -2.2 °F -25.7 °F -11.2 °F 66% 30.49 in 10.0 mi WNW 21.9 mph - N/A   Clear
12:55 PM -2.2 °F -23.5 °F -11.2 °F 66% 30.49 in 10.0 mi WNW 17.3 mph - N/A   Clear
1:15 PM -2.2 °F -23.5 °F -11.2 °F 66% 30.50 in 10.0 mi WNW 17.3 mph - N/A   Clear
1:35 PM -2.2 °F -22.2 °F -9.4 °F 71% 30.49 in 10.0 mi West 15.0 mph - N/A   Clear
1:55 PM -2.2 °F -23.5 °F -11.2 °F 66% 30.49 in 10.0 mi WNW 17.3 mph - N/A   Clear
2:15 PM -2.2 °F -22.9 °F -9.4 °F 71% 30.49 in 10.0 mi West 16.1 mph - N/A   Clear
2:35 PM -2.2 °F -22.9 °F -11.2 °F 66% 30.50 in 10.0 mi WNW 16.1 mph - N/A   Partly Cloudy
2:55 PM -2.2 °F -23.5 °F -11.2 °F 66% 30.50 in 10.0 mi WNW 17.3 mph - N/A   Clear
3:15 PM -2.2 °F -22.2 °F -11.2 °F 66% 30.50 in 10.0 mi WNW 15.0 mph - N/A   Clear
3:35 PM -2.2 °F -22.2 °F -11.2 °F 66% 30.51 in 10.0 mi WNW 15.0 mph - N/A   Clear
3:55 PM -2.2 °F -19.9 °F -11.2 °F 66% 30.51 in 10.0 mi WNW 11.5 mph - N/A   Clear
4:15 PM -2.2 °F -18.9 °F -11.2 °F 66% 30.52 in 10.0 mi WNW 10.4 mph - N/A   Clear
4:35 PM -4.0 °F -20.2 °F -11.2 °F 71% 30.52 in 10.0 mi WNW 9.2 mph - N/A   Clear
5:15 PM -7.6 °F -16.5 °F -11.2 °F 84% 30.53 in 10.0 mi West 3.5 mph - N/A   Partly Cloudy
5:55 PM -7.6 °F -24.6 °F -13.0 °F 77% 30.54 in 10.0 mi West 9.2 mph - N/A   Clear
6:15 PM -7.6 °F -24.6 °F -13.0 °F 77% 30.55 in 10.0 mi West 9.2 mph - N/A   Clear
6:35 PM -7.6 °F -23.4 °F -13.0 °F 77% 30.55 in 10.0 mi WSW 8.1 mph - N/A   Clear
6:55 PM -7.6 °F -25.7 °F -13.0 °F 77% 30.55 in 10.0 mi West 10.4 mph - N/A   Clear
7:15 PM -9.4 °F -27.9 °F -13.0 °F 84% 30.55 in 10.0 mi West 10.4 mph - N/A   Clear
7:35 PM -9.4 °F -27.9 °F -13.0 °F 84% 30.56 in 10.0 mi West 10.4 mph - N/A   Clear
7:55 PM -9.4 °F -27.9 °F -14.8 °F 77% 30.57 in 10.0 mi West 10.4 mph - N/A   Clear
8:15 PM -9.4 °F -27.9 °F -14.8 °F 77% 30.57 in 10.0 mi West 10.4 mph - N/A   Clear
8:35 PM -9.4 °F -26.8 °F -14.8 °F 77% 30.57 in 10.0 mi West 9.2 mph - N/A   Clear
8:55 PM -9.4 °F -25.6 °F -14.8 °F 77% 30.58 in 10.0 mi WSW 8.1 mph - N/A   Clear
9:15 PM -11.2 °F -27.8 °F -16.6 °F 77% 30.58 in 10.0 mi SW 8.1 mph - N/A   Clear
9:35 PM -11.2 °F -26.4 °F -16.6 °F 77% 30.58 in 10.0 mi SW 6.9 mph - N/A   Clear
9:55 PM -11.2 °F -26.4 °F -16.6 °F 77% 30.59 in 10.0 mi SW 6.9 mph - N/A   Clear
10:15 PM -11.2 °F -26.4 °F -16.6 °F 77% 30.58 in 10.0 mi SW 6.9 mph - N/A   Clear
10:35 PM -11.2 °F -24.8 °F -18.4 °F 70% 30.59 in 10.0 mi SW 5.8 mph - N/A   Clear
10:55 PM -13.0 °F -27.0 °F -18.4 °F 77% 30.59 in 10.0 mi SW 5.8 mph - N/A   Clear
11:15 PM -11.2 °F -27.8 °F -18.4 °F 70% 30.60 in 10.0 mi SW 8.1 mph - N/A   Clear
11:35 PM -13.0 °F -28.6 °F -18.4 °F 77% 30.60 in 10.0 mi SW 6.9 mph - N/A   Clear
11:55 PM -13.0 °F -31.3 °F -18.4 °F 77% 30.60 in 10.0 mi WSW 9.2 mph - N/A   Clear